Home   Weather   Quesnel   Past weeks

Flag for Canada Past Weather in Quesnel, British Columbia, Canada — Yesterday and Last 2 Weeks

48 °F

Passing clouds.

Feels Like: 44 °F
Forecast: 32 / 46 °F
Wind: 10 mph from Southeast

Location: Quesnel Airport

Current Time: Oct 21, 2016 at 8:33:31 PM

Latest Report: Oct 21, 2016 at 7:59 PM

Visibility: 9 mi

Pressure: 29.77 "Hg

Humidity: 62%

Dew Point: 36 °F

Location of QuesnelLocation

Past Weather in Quesnel — Graph


Quesnel Temperature Yesterday

Maximum temperature yesterday: 55 °F (at 3:00 PM)
Minimum temperature yesterday: 32 °F (at 10:45 PM)
Average temperature yesterday: 44 °F

High & Low Weather Summary for the Past Weeks

High55 °F (Oct 20, 3:00 PM)100% (Oct 7, 8:00 AM)30.45 "Hg (Oct 7, 8:00 AM)
Low21 °F (Oct 11, 4:00 AM)42% (Oct 10, 2:00 PM)29.09 "Hg (Oct 16, 2:00 AM)
Average38 °F86%29.85 "Hg
* Reported Oct 6 7:00 PM — Oct 21 7:00 PM, Quesnel, Weather by CustomWeather, © 2016

Note: Actual official high and low records may vary slightly from our data, if they occured in-between our weather recording intervals... More about our weather records


Quesnel Weather History for the Previous 24 Hours

Scroll right to see more
Time TempWeatherWind HumidityBarometerVisibility
7:00 PM
Fri, Oct 21
50 °FOvercast.9 mph58%29.77 "Hg9 mi
6:00 PM48 °FOvercast.8 mph62%29.78 "Hg9 mi
5:00 PM45 °FOvercast.3 mph81%29.79 "Hg9 mi
4:00 PM45 °FOvercast.2 mph81%29.82 "Hg9 mi
3:00 PM46 °FScattered clouds.6 mph71%29.83 "Hg9 mi
2:00 PM45 °FPartly sunny.2 mph81%29.85 "Hg9 mi
1:00 PM43 °FScattered clouds.5 mph81%29.87 "Hg9 mi
12:00 PM41 °FSunny.7 mph87%29.89 "Hg9 mi
11:00 AM37 °FScattered clouds.8 mph100%29.92 "Hg7 mi
10:54 AM37 °FScattered clouds.5 mph100%29.92 "Hg7 mi
10:00 AM34 °FPartly sunny.8 mph100%29.93 "Hg7 mi
9:00 AM32 °FIce fog.No wind100%29.97 "Hg0 mi
8:00 AM32 °FIce fog.No wind100%29.97 "Hg0 mi
7:47 AM32 °FIce fog.3 mph100%29.97 "Hg0 mi
7:03 AM32 °FIce fog.2 mph100%29.98 "Hg0 mi
6:58 AM32 °FFog.3 mph100%29.98 "Hg0 mi
6:00 AM32 °FIce fog.2 mph93%30.00 "Hg0 mi
5:01 AM30 °FIce fog.No wind100%30.01 "Hg1 mi
4:46 AM30 °FIce fog.No wind100%30.01 "Hg1 mi
4:00 AM30 °FIce fog.No wind100%30.03 "Hg1 mi
3:00 AM32 °FIce fog.2 mph100%30.01 "Hg0 mi
2:00 AM32 °FIce fog.2 mph100%30.02 "Hg1 mi
1:50 AM30 °FIce fog.No wind100%30.03 "Hg1 mi
1:02 AM30 °FIce fog.2 mph100%30.02 "Hg1 mi
12:46 AM32 °FIce fog.No wind93%30.02 "Hg1 mi
12:00 AM32 °FIce fog.No wind100%30.01 "Hg1 mi
11:00 PM
Thu, Oct 20
34 °FFog.No wind93%30.00 "Hg1 mi
10:45 PM32 °FIce fog.No wind100%29.99 "Hg2 mi
10:00 PM36 °FFog.No wind93%29.98 "Hg1 mi
9:59 PM36 °FFog.2 mph93%29.98 "Hg1 mi
9:02 PM36 °FFog.2 mph100%29.96 "Hg2 mi
8:00 PM37 °FFog.3 mph100%29.93 "Hg1 mi
Weather by CustomWeather, © 2016

See weather overviewHow to use our weather pages